Location: Lake Lucerne
(45.5315°N, 88.8489°W)
Time: 01:47:21
(UTC-05:00)

ISS - Visible Passes

Search period start: 25 May 2017 00:00
Search period end: 04 June 2017 00:00
Orbit: 402 x 409 km, 51.6° (Epoch: 25 May)

Date Brightness Start Highest point End Pass type
(mag) Time Alt. Az. Time Alt. Az. Time Alt. Az.
25 May -1.7 00:15:51 10° WNW 00:18:47 28° N 00:21:43 10° NE visible
25 May -2.0 01:52:50 10° NW 01:55:52 33° NNE 01:58:53 10° E visible
25 May -4.0 03:29:18 10° WNW 03:32:34 70° SSW 03:35:50 10° SE visible
25 May -3.9 21:46:38 10° SW 21:49:54 68° SSE 21:53:11 10° ENE visible
25 May -2.0 23:23:33 10° W 23:26:36 33° NNW 23:29:38 10° NE visible
26 May -1.7 01:00:45 10° NW 01:03:40 28° N 01:06:35 10° ENE visible
26 May -3.6 02:37:15 10° WNW 02:40:32 72° NNE 02:43:48 10° ESE visible
26 May -2.4 04:14:20 10° W 04:16:44 19° SW 04:19:06 10° S visible
26 May -2.5 22:31:16 10° W 22:34:25 43° NNW 22:37:36 10° NE visible
27 May -1.6 00:08:34 10° WNW 00:11:27 27° N 00:14:19 10° ENE visible
27 May -2.8 01:45:14 10° NW 01:48:27 47° NNE 01:51:15 13° E visible
27 May -2.2 03:21:52 10° WNW 03:27:45 10° SSE 03:27:49 10° SSE visible
27 May -3.3 21:39:01 10° WSW 21:42:18 63° NNW 21:45:35 10° ENE visible
27 May -1.6 23:16:18 10° WNW 23:19:12 28° N 23:22:06 10° ENE visible
28 May -2.2 00:53:11 10° NW 00:56:16 35° NNE 00:57:36 24° ENE visible
28 May -1.4 02:29:39 10° WNW 02:30:10 14° WNW 02:30:10 14° WNW visible
28 May -1.8 22:23:58 10° WNW 22:26:58 31° N 22:29:58 10° NE visible
29 May -1.8 00:01:05 10° NW 00:04:03 30° N 00:06:24 14° ENE visible
29 May -1.9 01:37:33 10° WNW 01:39:00 24° WNW 01:39:00 24° WNW visible
29 May -2.2 21:31:37 10° W 21:34:44 38° NNW 21:37:52 10° NE visible
29 May -1.7 23:08:54 10° WNW 23:11:47 27° N 23:14:40 10° ENE visible
30 May -2.8 00:45:29 10° WNW 00:48:10 47° NNW 00:48:10 47° NNW visible
30 May -1.6 22:16:37 10° WNW 22:19:30 27° N 22:22:23 10° ENE visible
30 May -2.5 23:53:25 10° NW 23:56:33 39° NNE 23:57:30 31° ENE visible
31 May -1.0 01:29:56 10° WNW 01:30:08 11° WNW 01:30:08 11° WNW visible
31 May -1.8 21:24:16 10° WNW 21:27:13 29° N 21:30:11 10° NE visible
31 May -2.0 23:01:18 10° NW 23:04:18 31° N 23:06:54 12° ENE visible
01 Jun -2.2 00:37:45 10° WNW 00:39:32 29° WNW 00:39:32 29° WNW visible
01 Jun -1.8 22:09:06 10° NW 22:12:01 28° N 22:14:55 10° ENE visible
01 Jun -3.5 23:45:38 10° WNW 23:48:55 64° NNE 23:48:59 64° NE visible
02 Jun -1.7 21:16:50 10° WNW 21:19:42 27° N 21:22:35 10° ENE visible
02 Jun -2.8 22:53:31 10° NW 22:56:43 44° NNE 22:58:28 22° E visible
03 Jun -1.5 00:30:06 10° WNW 00:31:07 17° W 00:31:07 17° W visible
03 Jun -2.3 22:01:24 10° NW 22:04:27 34° NNE 22:07:29 10° E visible
03 Jun -3.5 23:37:51 10° WNW 23:40:38 55° W 23:40:38 55° W visible
